User: anonymous   Login
Location: Feigenhofen
(48.4939°N, 10.7793°E)
Time: 08:58:23
(UTC+00:00)
Language:

ATLAS 5 CENTAUR R/B - Orbit

View from above orbital plane
View from above orbital plane
View from above satellite
View from above satellite

Ground track
Ground track

The orbit data is extracted from the following two-line orbital elements,

1 32379U 07060B   22223.77494286  .00002874  00000-0  88785-3 0  9995
2 32379  60.8600  56.3803 5016296 177.7596 185.9943  5.53871894 61299
Epoch (UTC): 11 August 2022 18:35:55
Eccentricity: 0.5016296
inclination: 60.8600°
perigee height: 346 km
apogee height: 13884 km
right ascension of ascending node: 56.3803°
argument of perigee: 177.7596°
revolutions per day: 5.53871894
mean anomaly at epoch: 185.9943°
orbit number at epoch: 6129

The dashed part of the orbit path shows where the satellite is in the earth's shadow,  

DLR